Location: Bremen
(53.0793°N, 8.8017°E)
Time: 09:08:19
(UTC+01:00)

Explorer 7 - Visible Passes

Search period start: 30 November 2022 00:00
Search period end: 10 December 2022 00:00
Orbit: 481 x 665 km, 50.3° (Epoch: 29 November)

Date Brightness Start Highest point End Pass type
(mag) Time Alt. Az. Time Alt. Az. Time Alt. Az.
30 Nov 7.5 16:50:56 10° W 16:54:33 47° SSW 16:58:11 10° ESE visible
30 Nov 8.9 18:31:27 10° W 18:34:17 20° SSW 18:37:04 10° SSE visible
01 Dec 7.9 16:52:47 10° W 16:56:18 41° SSW 16:59:52 10° SE visible
01 Dec 9.4 18:33:40 10° WSW 18:35:54 15° SW 18:38:11 10° S visible
02 Dec 8.3 16:54:39 10° W 16:58:03 33° SSW 17:01:28 10° SE visible
02 Dec 9.7 18:36:31 10° SW 18:37:30 11° SW 18:38:30 10° SSW visible
03 Dec 8.8 16:56:34 10° W 16:59:45 27° SSW 17:02:57 10° SSE visible
04 Dec 9.3 16:58:33 10° W 17:01:24 21° SSW 17:04:16 10° SSE visible
05 Dec 9.6 17:00:44 10° WSW 17:03:00 16° SW 17:05:18 10° S visible
06 Dec 10.1 17:03:26 10° WSW 17:04:34 11° SW 17:05:44 10° SSW visible
